Voltar ao catálogo

THOR ABLESTAR DEB

AtivoLEO
NORAD 130·DEBRIS·🇺🇸 United States

Lançado Jun 29, 1961 de Cape Canaveral Space Force Station

Loading…

Próximas Passagens (próximas 24 horas)

TLE

AtualizadoSource: Space-Track

Época: Sep 10, 2026, 17:18 UTC

1 00130U 61015Q   26253.72102376 -.00000011  00000-0  45265-4 0  9992
2 00130  66.7714  39.6020 0091018 232.4377 126.8413 13.99443380323427

Acompanhe THOR ABLESTAR DEB em tempo real com AllMySat

Download on the App Store